webshop.langauto.hu - /kepek/bizttech/ENI/


[To Parent Directory]

Wednesday, May 10, 2017 2:56 PM 129144 AGIP ROTRA TRUCK GEAR S 75W-90.pdf
Wednesday, May 10, 2017 2:56 PM 130475 AGIP ATF D 309.pdf
Wednesday, May 10, 2017 2:56 PM 139929 AGIP ATF II D.PDF
Wednesday, May 10, 2017 2:56 PM 135134 AGIP ATF II E.PDF
Wednesday, May 10, 2017 2:55 PM 136822 AGIP DICREA 150.pdf
Wednesday, May 10, 2017 2:55 PM 136705 AGIP DICREA 46.pdf
Wednesday, May 10, 2017 2:55 PM 111749 AGIP EXIDIA HG 100.pdf
Wednesday, May 10, 2017 2:55 PM 113315 AGIP EXIDIA HG 150.pdf
Wednesday, May 10, 2017 2:55 PM 131887 AGIP EXIDIA HG 32.pdf
Wednesday, May 10, 2017 2:55 PM 111174 AGIP EXIDIA HG 46.pdf
Wednesday, May 10, 2017 2:55 PM 134774 AGIP EXIDIA HG 68.pdf
Wednesday, May 10, 2017 2:55 PM 114237 AGIP FOREST.PDF
Wednesday, May 10, 2017 2:56 PM 124057 AGIP ROTRA HY SAE 80W-90.pdf
Wednesday, May 10, 2017 2:56 PM 153548 AGIP ROTRA SX-S.PDF
Wednesday, May 10, 2017 2:56 PM 150190 AGIP ROTRA SX.PDF
Wednesday, May 10, 2017 2:56 PM 108187 AGIP SHD EXTRA 10W-40.pdf
Wednesday, May 10, 2017 2:56 PM 111906 AGIP SHD EXTRA 15W-40.pdf
Wednesday, May 10, 2017 2:56 PM 112227 AGIP SHD EXTRA 20W-50.pdf
Wednesday, May 10, 2017 2:56 PM 112673 AGIP SHD PLUS 10W-40.pdf
Wednesday, May 10, 2017 2:55 PM 120884 AGIP SIMBLUM 3.pdf
Wednesday, May 10, 2017 2:56 PM 456881 ANTIFREEZE FLUID.PDF
Wednesday, May 10, 2017 2:56 PM 456361 ANTIFREEZE.PDF
Wednesday, May 10, 2017 2:56 PM 411783 AUTOL CARRERA P 0W-30.pdf
Wednesday, May 10, 2017 2:56 PM 118105 AUTOL FLIESSFETT ZSA.PDF
Wednesday, May 10, 2017 2:56 PM 124640 AUTOL GETRIEBEÖL VSL-4.pdf
Wednesday, May 10, 2017 2:55 PM 160561 AUTOL M 2000 MULTISPRAY.PDF
Wednesday, May 10, 2017 2:55 PM 113736 AUTOL SPEZIAL SAEGEKETTENHAFTOEL.PDF
Wednesday, May 10, 2017 2:56 PM 163419 AUTOL SUPERGEAR 75W-90.pdf
Wednesday, May 10, 2017 2:56 PM 170727 AUTOL TOP 2000 FETTSPRAY.PDF
Wednesday, May 10, 2017 2:56 PM 129409 AUTOL TOP 2000 HIGH TEMP.PDF
Wednesday, May 10, 2017 2:56 PM 138458 AUTOL TOP 2000.pdf
Wednesday, May 10, 2017 2:56 PM 166006 ENI ROTRA HY 80W-90.pdf
Wednesday, May 10, 2017 2:55 PM 129938 ENI ARNICA 22.pdf
Wednesday, May 10, 2017 2:55 PM 129640 ENI ARNICA 32.pdf
Wednesday, May 10, 2017 2:55 PM 123245 ENI ARNICA 46.pdf
Wednesday, May 10, 2017 2:55 PM 125270 ENI ARNICA 68.pdf
Wednesday, May 10, 2017 2:55 PM 171767 ENI ARNICA A 15.pdf
Wednesday, May 10, 2017 2:55 PM 116894 ENI ARNICA P 46.pdf
Wednesday, May 10, 2017 2:55 PM 113918 ENI ARNICA S 46.pdf
Wednesday, May 10, 2017 2:55 PM 114026 ENI ARNICA S 68.pdf
Wednesday, May 10, 2017 2:55 PM 125060 ENI ASP C 32.pdf
Wednesday, May 10, 2017 2:56 PM 125426 ENI BRAKE FLUID DOT 4.pdf
Wednesday, May 10, 2017 2:56 PM 135369 ENI FORK OIL 10W.PDF
Wednesday, May 10, 2017 2:56 PM 135025 ENI FORK OIL 15W.PDF
Wednesday, May 10, 2017 2:56 PM 138400 ENI FORK OIL 5W.PDF
Wednesday, May 10, 2017 2:56 PM 138268 ENI FORK OIL 7,5W.PDF
Wednesday, May 10, 2017 2:56 PM 122100 ENI GREASE 30.pdf
Wednesday, May 10, 2017 2:56 PM 131051 ENI GREASE AC 2.pdf
Wednesday, May 10, 2017 2:56 PM 140306 ENI GREASE LC 2.pdf
Wednesday, May 10, 2017 2:56 PM 117812 ENI GREASE MU EP 0.pdf
Wednesday, May 10, 2017 2:56 PM 118293 ENI GREASE MU EP 00.pdf
Wednesday, May 10, 2017 2:56 PM 118705 ENI GREASE MU EP 1.pdf
Wednesday, May 10, 2017 2:56 PM 115174 ENI GREASE MU EP 2.pdf
Wednesday, May 10, 2017 2:56 PM 118998 ENI GREASE MU EP 3.pdf
Wednesday, May 10, 2017 2:56 PM 125577 ENI GREASE NF 2.pdf
Wednesday, May 10, 2017 2:56 PM 117546 ENI GREASE NG 3.pdf
Wednesday, May 10, 2017 2:56 PM 121179 ENI GREASE SM 2.pdf
Wednesday, May 10, 2017 2:56 PM 129409 ENI I-BASE 15W-40.pdf
Wednesday, May 10, 2017 2:56 PM 143546 ENI I-BASE PROFESSIONAL 15W-40.pdf
Wednesday, May 10, 2017 2:56 PM 140466 ENI I-RIDE RACING 10W-60.pdf
Wednesday, May 10, 2017 2:56 PM 134816 ENI I-RIDE RACING 2T.PDF
Wednesday, May 10, 2017 2:56 PM 136547 ENI I-RIDE RACING 5W-40.pdf
Wednesday, May 10, 2017 2:56 PM 150488 ENI I-RIDE RACING OFFROAD 10W-50.pdf
Wednesday, May 10, 2017 2:56 PM 149445 ENI I-RIDE SCOOTER 10W-40.pdf
Wednesday, May 10, 2017 2:56 PM 135140 ENI I-RIDE SCOOTER 15W-50.pdf
Wednesday, May 10, 2017 2:56 PM 134793 ENI I-RIDE SCOOTER 2T.PDF
Wednesday, May 10, 2017 2:56 PM 151766 ENI I-RIDE SPECIAL MULTIPURPOSE 20W-50.pdf
Wednesday, May 10, 2017 2:56 PM 149468 ENI I-SIGMA MONOGRADE 10W-20.pdf
Wednesday, May 10, 2017 2:56 PM 148917 ENI I-SIGMA MONOGRADE 30.pdf
Wednesday, May 10, 2017 2:56 PM 148915 ENI I-SIGMA MONOGRADE 40.pdf
Wednesday, May 10, 2017 2:56 PM 149021 ENI I-SIGMA MONOGRADE 50.pdf
Wednesday, May 10, 2017 2:56 PM 122603 ENI I-SIGMA PERFORMANCE E3.pdf
Wednesday, May 10, 2017 2:56 PM 127565 ENI I-SIGMA PERFORMANCE E4.pdf
Wednesday, May 10, 2017 2:56 PM 122722 ENI I-SIGMA PERFORMANCE E7.pdf
Wednesday, May 10, 2017 2:56 PM 141325 ENI I-SIGMA SPECIAL TMS .pdf
Tuesday, February 19, 2019 12:23 PM 330871 ENI I-SIGMA SPECIAL TMS LE.pdf
Tuesday, February 19, 2019 12:23 PM 104506 ENI I-SIGMA SPECIAL TMS_LE.pdf
Wednesday, May 10, 2017 2:56 PM 137875 ENI I-SIGMA TOP 10W-40 .pdf
Wednesday, May 10, 2017 2:56 PM 122783 ENI I-SIGMA TOP 5W-30 .pdf
Wednesday, May 10, 2017 2:56 PM 124719 ENI I-SIGMA TOP MS 10W-30 .pdf
Wednesday, May 10, 2017 2:56 PM 142856 ENI I-SIGMA TOP MS 10W-40 .pdf
Wednesday, May 10, 2017 2:56 PM 127630 ENI I-SIGMA TOP MS 15W-40 .pdf
Wednesday, May 10, 2017 2:56 PM 140766 ENI I-SIGMA TOP MS 5W-30 .pdf
Wednesday, May 10, 2017 2:56 PM 142555 ENI I-SIGMA UNIVERSAL 10W-40 .pdf
Wednesday, May 10, 2017 2:56 PM 123078 ENI I-SIGMA UNIVERSAL 15W-40 .pdf
Wednesday, May 10, 2017 2:56 PM 148297 ENI I-SIGMA UNIVERSAL DL 15W-40 .pdf
Wednesday, May 10, 2017 2:56 PM 138830 ENI I-SINT 0W-20.pdf
Wednesday, May 10, 2017 2:56 PM 140558 ENI I-SINT 0W-40.pdf
Wednesday, May 10, 2017 2:56 PM 142067 ENI I-SINT 10W-40.pdf
Wednesday, May 10, 2017 2:56 PM 123856 ENI I-SINT 5W-30.pdf
Wednesday, May 10, 2017 2:56 PM 125180 ENI I-SINT 5W-40.pdf
Wednesday, May 10, 2017 2:56 PM 124200 ENI I-SINT FE 5W-30.pdf
Wednesday, May 10, 2017 2:56 PM 122185 ENI I-SINT MS 5W-30.pdf
Wednesday, May 10, 2017 2:56 PM 127680 ENI I-SINT MS 5W-40.pdf
Wednesday, May 10, 2017 2:56 PM 134357 ENI I-SINT PROFESSIONAL 10W-40.pdf
Wednesday, May 10, 2017 2:56 PM 132479 ENI I-SINT PROFESSIONAL 5W-40.pdf
Wednesday, May 10, 2017 2:56 PM 111001 ENI I-SINT TD 10W-40.pdf
Wednesday, May 10, 2017 2:56 PM 170665 ENI I-SINT TECH 0W-30.pdf
Wednesday, May 10, 2017 2:56 PM 127779 ENI I-SINT TECH ECO F 5W-20.pdf
Wednesday, May 10, 2017 2:56 PM 120513 ENI I-SINT TECH F 5W-30.pdf
Wednesday, May 10, 2017 2:56 PM 129339 ENI I-SINT TECH G 5W-30.pdf
Wednesday, May 10, 2017 2:56 PM 127437 ENI I-SINT TECH M 5W-30.pdf
Wednesday, May 10, 2017 2:56 PM 121551 ENI I-SINT TECH P 5W-30.pdf
Wednesday, May 10, 2017 2:56 PM 130461 ENI I-SINT TECH R 5W-30.pdf
Wednesday, May 10, 2017 2:56 PM 131934 ENI KART 2T.PDF
Wednesday, May 10, 2017 2:56 PM 167719 ENI MIX 2T.PDF
Wednesday, May 10, 2017 2:56 PM 154950 ENI MULTITECH 10W-30.pdf
Wednesday, May 10, 2017 2:56 PM 151986 ENI MULTITECH 10W-40.pdf
Wednesday, May 10, 2017 2:56 PM 155591 ENI MULTITECH 15W-40.pdf
Wednesday, May 10, 2017 2:56 PM 144480 ENI MULTITECH CT 10W.PDF
Wednesday, May 10, 2017 2:56 PM 147252 ENI MULTITECH CT 30.pdf
Wednesday, May 10, 2017 2:56 PM 144300 ENI MULTITECH CT 50.pdf
Wednesday, May 10, 2017 2:56 PM 144445 ENI MULTITECH CT 60.pdf
Wednesday, May 10, 2017 2:56 PM 153461 ENI MULTITECH JD-F.PDF
Wednesday, May 10, 2017 2:56 PM 152458 ENI MULTITECH THT.PDF
Wednesday, May 10, 2017 2:55 PM 394779 ENI OSO 10.pdf
Wednesday, May 10, 2017 2:56 PM 447522 ENI OSO 100.pdf
Wednesday, May 10, 2017 2:55 PM 158589 ENI OSO 15.pdf
Wednesday, May 10, 2017 2:56 PM 129687 ENI OSO 150.pdf
Wednesday, May 10, 2017 2:55 PM 446889 ENI OSO 32.pdf
Wednesday, May 10, 2017 2:55 PM 129194 ENI OSO 46.pdf
Wednesday, May 10, 2017 2:55 PM 129096 ENI OSO 68.pdf
Wednesday, May 10, 2017 2:56 PM 124534 ENI OSO S 46.pdf
Wednesday, May 10, 2017 2:56 PM 124905 ENI OSO S 68.pdf
Wednesday, May 10, 2017 2:56 PM 138718 ENI ROTRA A-R 75W-90.pdf
Wednesday, May 10, 2017 2:56 PM 142527 ENI ROTRA ATF II D.PDF
Wednesday, May 10, 2017 2:56 PM 142891 ENI ROTRA ATF III.PDF
Wednesday, May 10, 2017 2:56 PM 348645 ENI ROTRA ATF MB.PDF
Wednesday, May 10, 2017 2:56 PM 140567 ENI ROTRA ATF MULTI.PDF
Wednesday, May 10, 2017 2:56 PM 163696 ENI ROTRA ATF.PDF
Wednesday, May 10, 2017 2:56 PM 132673 ENI ROTRA BIKE 80W-90.pdf
Wednesday, May 10, 2017 2:56 PM 134276 ENI ROTRA BIKE GEAR SYNTH 75W-90.pdf
Wednesday, May 10, 2017 2:56 PM 128167 ENI ROTRA BIKE MG 85W-140.pdf
Wednesday, May 10, 2017 2:56 PM 160152 ENI ROTRA FE 75W-80.pdf
Wednesday, May 10, 2017 2:56 PM 161698 ENI ROTRA FE 75W-90.pdf
Wednesday, May 10, 2017 2:56 PM 162629 ENI ROTRA HY DB 80W.PDF
Wednesday, May 10, 2017 2:56 PM 155436 ENI ROTRA HY DB SYNTH 75W-90.pdf
Wednesday, May 10, 2017 2:56 PM 157206 ENI ROTRA LSX 75W-90.pdf
Wednesday, May 10, 2017 2:56 PM 170673 ENI ROTRA MP 75W-80.pdf
Wednesday, May 10, 2017 2:56 PM 152359 ENI ROTRA MP 80W-90.pdf
Wednesday, May 10, 2017 2:56 PM 168780 ENI ROTRA MP 85W-140.pdf
Wednesday, May 10, 2017 2:56 PM 162615 ENI ROTRA MP DB 85W-90.pdf
Wednesday, May 10, 2017 2:56 PM 146289 ENI ROTRA MP DB SYNTH 75W-90.pdf
Wednesday, May 10, 2017 2:56 PM 162510 ENI ROTRA MP-S 85W-90.pdf
Wednesday, May 10, 2017 2:56 PM 130831 ENI ROTRA MULTIGEAR 75W-80.pdf
Wednesday, May 10, 2017 2:56 PM 380773 ENI ROTRA TRUCKGEAR 75W-140.pdf
Wednesday, May 10, 2017 2:56 PM 157024 ENI ROTRA TRUCKGEAR 80W-90.pdf
Wednesday, May 10, 2017 2:56 PM 150828 ENI ROTRA TRUCKGEAR 85W-140.pdf
Wednesday, May 10, 2017 2:56 PM 337864 HAJTÓMŰOLAJ GL-4 SAE 80W-90.pdf
Wednesday, May 10, 2017 2:56 PM 120114 HYDRAULIC OIL HLP 32.pdf
Wednesday, May 10, 2017 2:56 PM 118848 HYDRAULIC OIL HLP 46.pdf
Wednesday, May 10, 2017 2:56 PM 118825 HYDRAULIC OIL HLP 68.pdf
Wednesday, May 10, 2017 2:56 PM 149019 I-CARE SUPERCLEAN -30.pdf
Wednesday, May 10, 2017 2:56 PM 99877 I-CARE SUPERCLEAN READY TO USE (NYÁRI).pdf
Wednesday, May 10, 2017 2:56 PM 123074 TURBO DIESEL E7 SAE 15W-40.pdf
Wednesday, May 10, 2017 2:56 PM 133158 TURBO DIESEL SAE 10W-40.pdf
Wednesday, May 10, 2017 2:56 PM 124091 TURBO DIESEL SAE 15W-40.pdf